Flag for French Polynesia Weather past 2 weeks in Papeete, Tahiti, French Polynesia

Now
86 °F

Scattered clouds.


Feels Like: 95 °F
Forecast: 81 / 83 °F
Wind: 14 mph from Northeast

Location: Tahiti-Faaa

Current Time: Feb 27, 2015 at 11:41:10 AM

Latest Report: Feb 27, 2015 at 11:00 AM


Visibility: N/A

Pressure: 29.89 "Hg

Humidity: 70%

Dew point: 75 °F

Location of PapeeteLocation

Historic Weather in Papeete — Graph

°F

Papeete temperature yesterday

Maximum temperature yesterday: 90 °F (at 12:30 PM)
Minimum temperature yesterday: 77 °F (at 12:00 AM)
Average temperature yesterday: 82 °F

Past Weeks' High & Low Weather Summary

 TemperatureHumidityPressure
High91 °F (Feb 15, 1:30 PM)89% (Feb 13, 5:30 PM)30.01 "Hg (Feb 13, 5:30 PM)
Low75 °F (Feb 14, 5:30 AM)41% (Feb 15, 1:30 PM)29.74 "Hg (Feb 23, 3:30 PM)
Average82 °F70%29.90 "Hg
* Reported Feb 12 10:00 AM — Feb 27 10:00 AM, Papeete, Weather by CustomWeather, © 2015

Note: Actual official high and low records may vary slightly from our data, if they occured in-between our weather recording intervals... More about our weather records

Advertising

Papeete weather history for previous 24 hours

 ConditionsComfort  
Time TempWeatherWind HumidityBarometerVisibility
10:00 AM
Fri, Feb 27
86 °FScattered clouds.18 mph70%29.92 "HgN/A
9:30 AM86 °FScattered clouds.17 mph70%29.92 "HgN/A
9:00 AM84 °FScattered clouds.13 mph70%29.92 "HgN/A
8:30 AM82 °FScattered clouds.9 mph74%29.92 "HgN/A
8:00 AM82 °FPassing clouds.12 mph66%29.92 "HgN/A
7:30 AM82 °FPassing clouds.3 mph70%29.92 "HgN/A
7:00 AM79 °FPassing clouds.2 mph74%29.89 "HgN/A
6:30 AM77 °FPassing clouds.3 mph79%29.89 "HgN/A
6:00 AM77 °FPassing clouds.3 mph74%29.86 "HgN/A
5:30 AM77 °FWarm.3 mph79%29.86 "HgN/A
5:00 AM77 °FWarm.3 mph74%29.86 "HgN/A
4:30 AM77 °FWarm.No wind74%29.86 "HgN/A
4:00 AM77 °FWarm.2 mph79%29.86 "HgN/A
3:30 AM77 °FWarm.2 mph79%29.86 "HgN/A
3:00 AM77 °FPassing clouds.3 mph79%29.86 "HgN/A
2:30 AM77 °FPassing clouds.1 mph79%29.86 "HgN/A
2:00 AM79 °FPassing clouds.5 mph74%29.86 "HgN/A
1:30 AM79 °FPassing clouds.3 mph79%29.86 "HgN/A
1:00 AM79 °FPassing clouds.3 mph79%29.89 "HgN/A
12:30 AM79 °FPassing clouds.2 mph74%29.89 "HgN/A
12:00 AM79 °FPassing clouds.3 mph79%29.89 "HgN/A
11:30 PM
Thu, Feb 26
79 °FPassing clouds.5 mph74%29.92 "HgN/A
11:00 PM79 °FPassing clouds.2 mph79%29.92 "HgN/A
10:30 PM79 °FPassing clouds.No wind79%29.92 "HgN/A
10:00 PM79 °FPassing clouds.2 mph79%29.92 "HgN/A
9:30 PM81 °FPassing clouds.3 mph74%29.92 "HgN/A
9:00 PM81 °FPassing clouds.No wind74%29.89 "HgN/A
8:30 PM81 °FPassing clouds.3 mph74%29.89 "HgN/A
8:00 PM81 °FPassing clouds.5 mph74%29.89 "HgN/A
7:30 PM84 °FPassing clouds.3 mph70%29.89 "HgN/A
7:00 PM84 °FPassing clouds.5 mph70%29.86 "HgN/A
6:30 PM84 °FPassing clouds.6 mph66%29.86 "HgN/A
5:30 PM86 °FScattered clouds.5 mph62%29.86 "HgN/A
5:00 PM86 °FScattered clouds.6 mph62%29.83 "HgN/A
4:30 PM86 °FPartly sunny.9 mph62%29.83 "HgN/A
4:00 PM88 °FPartly sunny.9 mph59%29.83 "HgN/A
3:30 PM88 °FPartly sunny.2 mph59%29.83 "HgN/A
3:00 PM88 °FScattered clouds.3 mph59%29.83 "HgN/A
2:30 PM88 °FScattered clouds.3 mph59%29.83 "HgN/A
2:00 PM88 °FScattered clouds.10 mph59%29.83 "HgN/A
1:30 PM88 °FPassing clouds.12 mph62%29.83 "HgN/A
1:00 PM90 °FScattered clouds.14 mph59%29.86 "HgN/A
12:30 PM90 °FScattered clouds.10 mph55%29.86 "HgN/A
12:00 PM88 °FScattered clouds.12 mph62%29.86 "HgN/A
11:00 AM88 °FScattered clouds.13 mph62%29.89 "HgN/A
Weather by CustomWeather, © 2015

See weather overviewHow to use our weather pages